Regional Weather Roundup
Issued by NWS

Home | Current Version | Previous Version | Text Only | Print | Product List | Glossary Off
Versions: 1 2 3 4 5 6 7 8 9 10 11 12 13 14 15 16 17 18 19 20 21 22 23 24 25 26 27 28 29 30 31 32 33 34 35 36 37 38 39 40 41 42 43 44 45 46 47 48 49 50

000
ASUS43 KLMK 220702
RWRKY
KENTUCKY REGIONAL WEATHER ROUNDUP
NATIONAL WEATHER SERVICE LOUISVILLE KY
200 AM EST MON DEC 22 2014

NOTE "FAIR" INDICATES FEW OR NO CLOUDS BELOW 12,000 FEET
WITH NO SIGNIFICANT WEATHER AND/OR OBSTRUCTIONS TO VISIBILITY.

KYZ001>023-026-027-061>063-070>075-220800-
WESTERN AND SOUTH CENTRAL KENTUCKY

CITY           SKY/WX    TMP DP  RH WIND       PRES   REMARKS
PADUCAH        CLOUDY    40  32  73 SE6       29.94F
HENDERSON      CLOUDY    36  27  69 E6        29.97F WCI  31
OWENSBORO      CLOUDY    36  30  79 E6        29.99F WCI  31
HOPKINSVILLE   CLOUDY    38  31  77 E5        29.96F WCI  34
BOWLING GREEN  PTCLDY    35  28  75 CALM      30.00S
GLASGOW        NOT AVBL
$$

KYZ024-025-028>034-038-045-046-053-220800-
NORTH CENTRAL KENTUCKY

CITY           SKY/WX    TMP DP  RH WIND       PRES   REMARKS
LOUISVILLE/SDF CLOUDY    37  29  72 CALM      30.03F
LOUISVILLE/LOU CLOUDY    37  28  70 E5        30.03F WCI  33
FORT KNOX      MOCLDY    33  28  81 NE6       29.99F WCI  28
$$

KYZ035>037-039>044-047>052-055>060-089>105-220800-
NORTHEAST KENTUCKY

CITY           SKY/WX    TMP DP  RH WIND       PRES   REMARKS
LEXINGTON      CLOUDY    36  28  73 SE9       30.03F WCI  29
COVINGTON      MOCLDY    30  23  75 E5        30.06F WCI  25
FRANKFORT      CLOUDY    31  26  82 NE5       30.03F WCI  26
$$

KYZ054-064>069-076>088-106>120-220800-
SOUTHEAST KENTUCKY

CITY           SKY/WX    TMP DP  RH WIND       PRES   REMARKS
JACKSON        CLOUDY    37  26  64 E3        30.05F
LONDON         PTCLDY    40  29  64 E5        30.02F
SOMERSET       NOT AVBL
MIDDLESBORO    CLOUDY    39  36  87 NW5       30.07F
MONTICELLO     CLOUDY    34  31  89 CALM      30.05F
$$



USA.gov is the U.S. government's official web portal to all federal, state and local government web resources and services.